| time (UTC) | temp F | wind direction | speed MPH | gust MPH | rain 1hr in | rain 24hr in | rain mn in | humidity % | barometer mb |
| 20260508060638 | 66 | 92 | 0.0 | 0.0 | 0.00 | 0.00 | 0.00 | 36 | 1013.4 |
| 20260508060135 | 67 | 93 | 0.0 | 0.0 | 0.00 | 0.00 | 0.00 | 35 | 1013.2 |
| 20260508055631 | 67 | 93 | 0.0 | 0.0 | 0.00 | 0.00 | 0.00 | 33 | 1013.2 |
| 20260508055128 | 68 | 93 | 0.0 | 0.0 | 0.00 | 0.00 | 0.00 | 33 | 1013.3 |
| 20260508054624 | 68 | 92 | 0.0 | 0.0 | 0.00 | 0.00 | 0.00 | 33 | 1013.4 |
| 20260508054122 | 68 | 93 | 0.0 | 0.0 | 0.00 | 0.00 | 0.00 | 32 | 1013.4 |
| 20260508053618 | 69 | 93 | 0.0 | 0.0 | 0.00 | 0.00 | 0.00 | 31 | 1013.2 |
| 20260508053116 | 69 | 94 | 0.0 | 0.0 | 0.00 | 0.00 | 0.00 | 30 | 1013.0 |
| 20260508052614 | 69 | 94 | 0.0 | 0.0 | 0.00 | 0.00 | 0.00 | 30 | 1013.3 |
| 20260508052110 | 69 | 94 | 0.0 | 0.0 | 0.00 | 0.00 | 0.00 | 31 | 1013.5 |
| 20260508051606 | 70 | 94 | 0.0 | 0.0 | 0.00 | 0.00 | 0.00 | 30 | 1013.2 |
| 20260508051102 | 71 | 94 | 0.0 | 0.0 | 0.00 | 0.00 | 0.00 | 30 | 1013.1 |
| 20260508050558 | 72 | 95 | 0.0 | 0.0 | 0.00 | 0.00 | 0.00 | 29 | 1013.2 |
| 20260508050056 | 72 | 126 | 0.0 | 0.0 | 0.00 | 0.00 | 0.00 | 25 | 1013.1 |
| 20260508045552 | 73 | 120 | 0.0 | 0.0 | 0.00 | 0.00 | 0.00 | 25 | 1013.2 |
| 20260508045050 | 73 | 118 | 0.0 | 0.0 | 0.00 | 0.00 | 0.00 | 25 | 1013.2 |
| 20260508044547 | 73 | 129 | 0.0 | 0.0 | 0.00 | 0.00 | 0.00 | 25 | 1013.0 |
| 20260508044043 | 73 | 91 | 1.0 | 1.0 | 0.00 | 0.00 | 0.00 | 26 | 1012.9 |
| 20260508043539 | 73 | 103 | 0.0 | 0.0 | 0.00 | 0.00 | 0.00 | 26 | 1013.1 |
| 20260508043037 | 73 | 103 | 1.0 | 1.0 | 0.00 | 0.00 | 0.00 | 25 | 1012.8 |
| 20260508042533 | 73 | 122 | 0.0 | 1.0 | 0.00 | 0.00 | 0.00 | 26 | 1012.7 |
| 20260508042031 | 73 | 95 | 0.0 | 0.0 | 0.00 | 0.00 | 0.00 | 27 | 1012.6 |
| 20260508041527 | 73 | 95 | 0.0 | 0.0 | 0.00 | 0.00 | 0.00 | 26 | 1012.4 |
| 20260508041024 | 74 | 97 | 1.0 | 1.0 | 0.00 | 0.00 | 0.00 | 26 | 1012.5 |
| 20260508040521 | 74 | 105 | 0.0 | 0.0 | 0.00 | 0.00 | 0.00 | 25 | 1012.5 |
| 20260508040018 | 74 | 105 | 0.0 | 0.0 | 0.00 | 0.00 | 0.00 | 25 | 1012.6 |
| 20260508035515 | 74 | 105 | 0.0 | 0.0 | 0.00 | 0.00 | 0.00 | 25 | 1012.4 |
| 20260508035012 | 74 | 105 | 1.0 | 1.0 | 0.00 | 0.00 | 0.00 | 25 | 1012.1 |
| 20260508034509 | 75 | 101 | 2.0 | 2.0 | 0.00 | 0.00 | 0.00 | 24 | 1012.0 |
| 20260508034006 | 75 | 54 | 0.0 | 0.0 | 0.00 | 0.00 | 0.00 | 23 | 1011.8 |
| 20260508033504 | 76 | 45 | 0.0 | 0.0 | 0.00 | 0.00 | 0.00 | 23 | 1011.8 |
| 20260508033001 | 77 | 45 | 0.0 | 0.0 | 0.00 | 0.00 | 0.00 | 22 | 1011.8 |
| 20260508032458 | 77 | 25 | 1.0 | 1.0 | 0.00 | 0.00 | 0.00 | 21 | 1011.6 |
| 20260508031955 | 77 | 294 | 1.0 | 1.0 | 0.00 | 0.00 | 0.00 | 21 | 1011.5 |
| 20260508031453 | 78 | 283 | 0.0 | 0.0 | 0.00 | 0.00 | 0.00 | 20 | 1011.3 |
| 20260508030948 | 78 | 278 | 0.0 | 0.0 | 0.00 | 0.00 | 0.00 | 20 | 1011.3 |
| 20260508030445 | 79 | 301 | 1.0 | 1.0 | 0.00 | 0.00 | 0.00 | 20 | 1011.2 |
| 20260508025943 | 79 | 258 | 2.0 | 3.0 | 0.00 | 0.00 | 0.00 | 19 | 1011.0 |
| 20260508025439 | 79 | 237 | 3.0 | 5.0 | 0.00 | 0.00 | 0.00 | 19 | 1010.9 |
| 20260508024936 | 79 | 264 | 5.0 | 6.0 | 0.00 | 0.00 | 0.00 | 19 | 1010.7 |
| 20260508024432 | 80 | 215 | 8.0 | 9.0 | 0.00 | 0.00 | 0.00 | 19 | 1010.6 |
| 20260508023929 | 80 | 258 | 11.0 | 13.0 | 0.00 | 0.00 | 0.00 | 19 | 1010.7 |
| 20260508023426 | 80 | 241 | 4.0 | 5.0 | 0.00 | 0.00 | 0.00 | 19 | 1010.3 |
| 20260508022923 | 81 | 258 | 7.0 | 11.0 | 0.00 | 0.00 | 0.00 | 18 | 1010.5 |
| 20260508022419 | 81 | 225 | 6.0 | 8.0 | 0.00 | 0.00 | 0.00 | 18 | 1010.3 |
| 20260508021916 | 81 | 285 | 7.0 | 8.0 | 0.00 | 0.00 | 0.00 | 18 | 1010.4 |
| 20260508021412 | 83 | 263 | 9.0 | 15.0 | 0.00 | 0.00 | 0.00 | 17 | 1010.3 |
| 20260508020908 | 84 | 261 | 5.0 | 7.0 | 0.00 | 0.00 | 0.00 | 14 | 1010.1 |
| 20260508020406 | 84 | 310 | 4.0 | 5.0 | 0.00 | 0.00 | 0.00 | 13 | 1010.3 |
| 20260508015903 | 85 | 315 | 5.0 | 6.0 | 0.00 | 0.00 | 0.00 | 13 | 1010.0 |
| 20260508015401 | 85 | 335 | 5.0 | 6.0 | 0.00 | 0.00 | 0.00 | 13 | 1009.9 |
| 20260508014856 | 86 | 317 | 4.0 | 6.0 | 0.00 | 0.00 | 0.00 | 13 | 1009.3 |
| 20260508014354 | 86 | 261 | 3.0 | 5.0 | 0.00 | 0.00 | 0.00 | 12 | 1009.3 |
| 20260508013849 | 87 | 358 | 4.0 | 5.0 | 0.00 | 0.00 | 0.00 | 12 | 1009.5 |
| 20260508013346 | 87 | 316 | 1.0 | 1.0 | 0.00 | 0.00 | 0.00 | 13 | 1009.2 |
| 20260508012843 | 87 | 308 | 2.0 | 3.0 | 0.00 | 0.00 | 0.00 | 13 | 1009.0 |
| 20260508012340 | 88 | 305 | 7.0 | 10.0 | 0.00 | 0.00 | 0.00 | 12 | 1009.3 |
| 20260508011838 | 88 | 300 | 3.0 | 5.0 | 0.00 | 0.00 | 0.00 | 13 | 1009.2 |
| 20260508011336 | 88 | 299 | 4.0 | 5.0 | 0.00 | 0.00 | 0.00 | 12 | 1008.8 |
| 20260508010833 | 88 | 323 | 4.0 | 7.0 | 0.00 | 0.00 | 0.00 | 12 | 1008.9 |
| 20260508010330 | 88 | 313 | 5.0 | 6.0 | 0.00 | 0.00 | 0.00 | 12 | 1008.9 |
| 20260508005827 | 89 | 272 | 3.0 | 6.0 | 0.00 | 0.00 | 0.00 | 12 | 1008.9 |
| 20260508005324 | 89 | 337 | 6.0 | 8.0 | 0.00 | 0.00 | 0.00 | 12 | 1008.9 |
| 20260508004820 | 89 | 309 | 3.0 | 3.0 | 0.00 | 0.00 | 0.00 | 13 | 1009.0 |
| 20260508004316 | 90 | 341 | 5.0 | 7.0 | 0.00 | 0.00 | 0.00 | 12 | 1008.9 |
| 20260508003813 | 89 | 290 | 3.0 | 3.0 | 0.00 | 0.00 | 0.00 | 13 | 1008.7 |
| 20260508003310 | 90 | 281 | 3.0 | 5.0 | 0.00 | 0.00 | 0.00 | 13 | 1008.6 |
| 20260508002807 | 90 | 4 | 2.0 | 3.0 | 0.00 | 0.00 | 0.00 | 13 | 1008.9 |
| 20260508002306 | 89 | 306 | 2.0 | 2.0 | 0.00 | 0.00 | 0.00 | 13 | 1008.8 |
| 20260508001800 | 90 | 323 | 6.0 | 10.0 | 0.00 | 0.00 | 0.00 | 12 | 1008.7 |
| 20260508001255 | 90 | 2 | 1.0 | 1.0 | 0.00 | 0.00 | 0.00 | 13 | 1008.7 |
| 20260508000752 | 90 | 292 | 5.0 | 7.0 | 0.00 | 0.00 | 0.00 | 12 | 1008.6 |
| 20260508000250 | 90 | 304 | 2.0 | 2.0 | 0.00 | 0.00 | 0.00 | 12 | 1008.5 |
| 20260507235745 | 89 | 302 | 4.0 | 7.0 | 0.00 | 0.00 | 0.00 | 13 | 1008.7 |
| 20260507235243 | 90 | 58 | 1.0 | 1.0 | 0.00 | 0.00 | 0.00 | 13 | 1008.7 |
| 20260507234740 | 91 | 4 | 2.0 | 2.0 | 0.00 | 0.00 | 0.00 | 12 | 1008.6 |
| 20260507234237 | 91 | 260 | 3.0 | 3.0 | 0.00 | 0.00 | 0.00 | 12 | 1008.8 |
| 20260507233733 | 92 | 14 | 1.0 | 1.0 | 0.00 | 0.00 | 0.00 | 12 | 1008.8 |
| 20260507233231 | 93 | 299 | 2.0 | 2.0 | 0.00 | 0.00 | 0.00 | 11 | 1008.7 |
| 20260507232728 | 92 | 301 | 2.0 | 3.0 | 0.00 | 0.00 | 0.00 | 12 | 1008.7 |
| 20260507232225 | 91 | 353 | 2.0 | 3.0 | 0.00 | 0.00 | 0.00 | 12 | 1008.7 |
| 20260507231721 | 90 | 329 | 3.0 | 3.0 | 0.00 | 0.00 | 0.00 | 13 | 1008.7 |
| 20260507231218 | 90 | 17 | 2.0 | 1.0 | 0.00 | 0.00 | 0.00 | 13 | 1008.8 |
| 20260507230715 | 90 | 50 | 1.0 | 1.0 | 0.00 | 0.00 | 0.00 | 13 | 1008.8 |
| 20260507230213 | 90 | 11 | 3.0 | 5.0 | 0.00 | 0.00 | 0.00 | 13 | 1008.8 |
| 20260507225711 | 90 | 314 | 2.0 | 2.0 | 0.00 | 0.00 | 0.00 | 13 | 1008.8 |
| 20260507225209 | 90 | 354 | 6.0 | 8.0 | 0.00 | 0.00 | 0.00 | 13 | 1009.0 |
| 20260507224705 | 91 | 14 | 2.0 | 2.0 | 0.00 | 0.00 | 0.00 | 12 | 1008.9 |
| 20260507224201 | 91 | 5 | 1.0 | 1.0 | 0.00 | 0.00 | 0.00 | 12 | 1008.9 |
| 20260507223657 | 91 | 274 | 1.0 | 1.0 | 0.00 | 0.00 | 0.00 | 12 | 1008.9 |
| 20260507223154 | 91 | 328 | 4.0 | 6.0 | 0.00 | 0.00 | 0.00 | 12 | 1008.9 |
| 20260507222651 | 91 | 263 | 5.0 | 6.0 | 0.00 | 0.00 | 0.00 | 12 | 1009.0 |
| 20260507222147 | 91 | 278 | 2.0 | 3.0 | 0.00 | 0.00 | 0.00 | 12 | 1008.8 |
| 20260507221644 | 93 | 272 | 2.0 | 2.0 | 0.00 | 0.00 | 0.00 | 12 | 1009.2 |
| 20260507221140 | 92 | 351 | 1.0 | 1.0 | 0.00 | 0.00 | 0.00 | 11 | 1009.3 |
| 20260507220637 | 92 | 287 | 1.0 | 1.0 | 0.00 | 0.00 | 0.00 | 11 | 1009.5 |
| 20260507220136 | 92 | 315 | 2.0 | 2.0 | 0.00 | 0.00 | 0.00 | 12 | 1009.1 |
| 20260507215631 | 91 | 1 | 1.0 | 1.0 | 0.00 | 0.00 | 0.00 | 11 | 1009.3 |
| 20260507215129 | 89 | 292 | 2.0 | 2.0 | 0.00 | 0.00 | 0.00 | 11 | 1009.7 |
| 20260507214626 | 87 | 81 | 2.0 | 2.0 | 0.00 | 0.00 | 0.00 | 12 | 1009.8 |
| 20260507214122 | 88 | 20 | 0.0 | 0.0 | 0.00 | 0.00 | 0.00 | 13 | 1009.8 |
| 20260507213618 | 89 | 317 | 2.0 | 2.0 | 0.00 | 0.00 | 0.00 | 13 | 1009.8 |
| 20260507213116 | 88 | 17 | 3.0 | 5.0 | 0.00 | 0.00 | 0.00 | 12 | 1009.9 |
| 20260507212612 | 87 | 39 | 1.0 | 1.0 | 0.00 | 0.00 | 0.00 | 14 | 1009.9 |
| 20260507212109 | 87 | 298 | 3.0 | 3.0 | 0.00 | 0.00 | 0.00 | 13 | 1009.9 |
| 20260507211605 | 88 | 213 | 4.0 | 5.0 | 0.00 | 0.00 | 0.00 | 12 | 1010.1 |
| 20260507211101 | 89 | 170 | 1.0 | 2.0 | 0.00 | 0.00 | 0.00 | 12 | 1010.3 |
| 20260507210559 | 89 | 4 | 1.0 | 1.0 | 0.00 | 0.00 | 0.00 | 13 | 1010.1 |
| 20260507210055 | 90 | 299 | 3.0 | 3.0 | 0.00 | 0.00 | 0.00 | 12 | 1010.4 |
| 20260507205552 | 90 | 255 | 2.0 | 3.0 | 0.00 | 0.00 | 0.00 | 11 | 1010.1 |
| 20260507205048 | 91 | 42 | 1.0 | 1.0 | 0.00 | 0.00 | 0.00 | 12 | 1010.4 |
| 20260507204545 | 90 | 326 | 1.0 | 1.0 | 0.00 | 0.00 | 0.00 | 12 | 1010.4 |
| 20260507204042 | 91 | 297 | 4.0 | 5.0 | 0.00 | 0.00 | 0.00 | 12 | 1010.4 |
| 20260507203540 | 90 | 300 | 3.0 | 3.0 | 0.00 | 0.00 | 0.00 | 12 | 1010.4 |
| 20260507203037 | 88 | 303 | 0.0 | 0.0 | 0.00 | 0.00 | 0.00 | 13 | 1010.6 |
| 20260507202533 | 86 | 35 | 1.0 | 1.0 | 0.00 | 0.00 | 0.00 | 13 | 1010.7 |
| 20260507202029 | 86 | 10 | 1.0 | 2.0 | 0.00 | 0.00 | 0.00 | 14 | 1010.6 |
| 20260507201525 | 87 | 341 | 2.0 | 2.0 | 0.00 | 0.00 | 0.00 | 13 | 1011.0 |
| 20260507201021 | 86 | 37 | 1.0 | 1.0 | 0.00 | 0.00 | 0.00 | 14 | 1011.0 |
| 20260507200517 | 87 | 323 | 2.0 | 3.0 | 0.00 | 0.00 | 0.00 | 14 | 1010.7 |
| 20260507200013 | 87 | 305 | 3.0 | 6.0 | 0.00 | 0.00 | 0.00 | 13 | 1010.9 |
| 20260507195511 | 87 | 328 | 0.0 | 0.0 | 0.00 | 0.00 | 0.00 | 14 | 1011.0 |
| 20260507195008 | 88 | 53 | 1.0 | 1.0 | 0.00 | 0.00 | 0.00 | 13 | 1010.9 |
| 20260507194504 | 90 | 308 | 2.0 | 3.0 | 0.00 | 0.00 | 0.00 | 12 | 1011.0 |
| 20260507194000 | 90 | 298 | 2.0 | 2.0 | 0.00 | 0.00 | 0.00 | 12 | 1010.9 |
| 20260507193458 | 89 | 78 | 1.0 | 1.0 | 0.00 | 0.00 | 0.00 | 13 | 1011.0 |
| 20260507192954 | 89 | 293 | 5.0 | 7.0 | 0.00 | 0.00 | 0.00 | 12 | 1011.3 |
| 20260507192450 | 88 | 299 | 3.0 | 3.0 | 0.00 | 0.00 | 0.00 | 12 | 1011.3 |
| 20260507191948 | 88 | 233 | 1.0 | 1.0 | 0.00 | 0.00 | 0.00 | 12 | 1011.4 |
| 20260507191443 | 88 | 160 | 1.0 | 1.0 | 0.00 | 0.00 | 0.00 | 12 | 1011.4 |
| 20260507190940 | 87 | 291 | 2.0 | 2.0 | 0.00 | 0.00 | 0.00 | 14 | 1011.4 |
| 20260507190438 | 87 | 329 | 1.0 | 2.0 | 0.00 | 0.00 | 0.00 | 14 | 1011.5 |
| 20260507185937 | 87 | 294 | 4.0 | 5.0 | 0.00 | 0.00 | 0.00 | 13 | 1011.5 |
| 20260507185433 | 87 | 69 | 2.0 | 2.0 | 0.00 | 0.00 | 0.00 | 13 | 1011.7 |
| 20260507184930 | 87 | 228 | 1.0 | 1.0 | 0.00 | 0.00 | 0.00 | 12 | 1011.7 |
| 20260507184428 | 87 | 282 | 3.0 | 3.0 | 0.00 | 0.00 | 0.00 | 15 | 1012.0 |
| 20260507183926 | 86 | 254 | 4.0 | 5.0 | 0.00 | 0.00 | 0.00 | 14 | 1011.9 |
| 20260507183422 | 86 | 290 | 2.0 | 2.0 | 0.00 | 0.00 | 0.00 | 15 | 1011.9 |
| 20260507182920 | 85 | 86 | 1.0 | 1.0 | 0.00 | 0.00 | 0.00 | 16 | 1012.2 |
| 20260507182415 | 85 | 256 | 3.0 | 2.0 | 0.00 | 0.00 | 0.00 | 15 | 1012.1 |
| 20260507181912 | 84 | 351 | 2.0 | 3.0 | 0.00 | 0.00 | 0.00 | 16 | 1012.2 |
| 20260507181408 | 84 | 13 | 1.0 | 2.0 | 0.00 | 0.00 | 0.00 | 16 | 1012.6 |
| 20260507180905 | 85 | 287 | 2.0 | 2.0 | 0.00 | 0.00 | 0.00 | 17 | 1012.5 |
| 20260507180401 | 84 | 71 | 1.0 | 2.0 | 0.00 | 0.00 | 0.00 | 16 | 1012.6 |
| 20260507175857 | 84 | 63 | 1.0 | 1.0 | 0.00 | 0.00 | 0.00 | 17 | 1012.6 |
| 20260507175354 | 84 | 353 | 3.0 | 3.0 | 0.00 | 0.00 | 0.00 | 16 | 1012.8 |
| 20260507174852 | 84 | 95 | 2.0 | 2.0 | 0.00 | 0.00 | 0.00 | 17 | 1012.7 |
| 20260507174349 | 83 | 100 | 1.0 | 1.0 | 0.00 | 0.00 | 0.00 | 18 | 1013.0 |
| 20260507173847 | 83 | 323 | 0.0 | 0.0 | 0.00 | 0.00 | 0.00 | 18 | 1013.2 |
| 20260507173343 | 83 | 34 | 2.0 | 2.0 | 0.00 | 0.00 | 0.00 | 20 | 1013.0 |
| 20260507172839 | 82 | 269 | 1.0 | 1.0 | 0.00 | 0.00 | 0.00 | 18 | 1013.0 |
| 20260507172336 | 82 | 128 | 2.0 | 2.0 | 0.00 | 0.00 | 0.00 | 17 | 1013.1 |
| 20260507171832 | 80 | 63 | 1.0 | 1.0 | 0.00 | 0.00 | 0.00 | 19 | 1013.1 |
| 20260507171329 | 80 | 239 | 2.0 | 2.0 | 0.00 | 0.00 | 0.00 | 18 | 1013.1 |
| 20260507170826 | 80 | 264 | 2.0 | 2.0 | 0.00 | 0.00 | 0.00 | 19 | 1013.2 |
| 20260507170323 | 81 | 309 | 2.0 | 2.0 | 0.00 | 0.00 | 0.00 | 19 | 1013.2 |
| 20260507165819 | 80 | 3 | 0.0 | 1.0 | 0.00 | 0.00 | 0.00 | 19 | 1013.2 |
| 20260507165315 | 78 | 55 | 1.0 | 1.0 | 0.00 | 0.00 | 0.00 | 21 | 1013.2 |
| 20260507164811 | 78 | 237 | 2.0 | 2.0 | 0.00 | 0.00 | 0.00 | 20 | 1013.6 |
| 20260507164308 | 77 | 210 | 0.0 | 0.0 | 0.00 | 0.00 | 0.00 | 20 | 1013.5 |
| 20260507163805 | 79 | 236 | 3.0 | 2.0 | 0.00 | 0.00 | 0.00 | 20 | 1013.3 |
| 20260507163303 | 79 | 53 | 0.0 | 0.0 | 0.00 | 0.00 | 0.00 | 22 | 1013.4 |
| 20260507162759 | 77 | 79 | 0.0 | 0.0 | 0.00 | 0.00 | 0.00 | 22 | 1013.3 |
| 20260507162255 | 76 | 181 | 1.0 | 1.0 | 0.00 | 0.00 | 0.00 | 21 | 1013.6 |
| 20260507161752 | 77 | 251 | 1.0 | 1.0 | 0.00 | 0.00 | 0.00 | 21 | 1013.6 |
| 20260507161248 | 77 | 233 | 2.0 | 2.0 | 0.00 | 0.00 | 0.00 | 21 | 1013.6 |
| 20260507160744 | 77 | 208 | 1.0 | 1.0 | 0.00 | 0.00 | 0.00 | 21 | 1013.6 |
| 20260507160241 | 75 | 54 | 1.0 | 1.0 | 0.00 | 0.00 | 0.00 | 22 | 1013.9 |
| 20260507155737 | 75 | 74 | 0.0 | 1.0 | 0.00 | 0.00 | 0.00 | 23 | 1014.0 |
| 20260507155233 | 74 | 76 | 0.0 | 0.0 | 0.00 | 0.00 | 0.00 | 23 | 1014.0 |
| 20260507154730 | 74 | 358 | 2.0 | 2.0 | 0.00 | 0.00 | 0.00 | 24 | 1013.9 |
| 20260507154228 | 75 | 53 | 1.0 | 1.0 | 0.00 | 0.00 | 0.00 | 24 | 1014.0 |
| 20260507153724 | 74 | 95 | 0.0 | 0.0 | 0.00 | 0.00 | 0.00 | 24 | 1013.9 |
| 20260507153220 | 74 | 83 | 1.0 | 0.0 | 0.00 | 0.00 | 0.00 | 25 | 1014.1 |
| 20260507152717 | 73 | 80 | 0.0 | 0.0 | 0.00 | 0.00 | 0.00 | 26 | 1013.9 |
| 20260507152213 | 72 | 90 | 0.0 | 0.0 | 0.00 | 0.00 | 0.00 | 26 | 1014.1 |
| 20260507151709 | 73 | 66 | 0.0 | 0.0 | 0.00 | 0.00 | 0.00 | 25 | 1014.2 |
| 20260507151206 | 72 | 88 | 0.0 | 0.0 | 0.00 | 0.00 | 0.00 | 27 | 1014.1 |
| 20260507150703 | 70 | 175 | 0.0 | 0.0 | 0.00 | 0.00 | 0.00 | 28 | 1014.2 |
| 20260507150200 | 71 | 176 | 1.0 | 1.0 | 0.00 | 0.00 | 0.00 | 28 | 1014.1 |
| 20260507145655 | 71 | 68 | 1.0 | 1.0 | 0.00 | 0.00 | 0.00 | 29 | 1014.1 |
| 20260507145152 | 71 | 69 | 0.0 | 0.0 | 0.00 | 0.00 | 0.00 | 30 | 1014.4 |
| 20260507144649 | 69 | 68 | 0.0 | 0.0 | 0.00 | 0.00 | 0.00 | 31 | 1014.3 |
| 20260507144147 | 69 | 55 | 1.0 | 1.0 | 0.00 | 0.00 | 0.00 | 31 | 1014.2 |
| 20260507143644 | 69 | 81 | 1.0 | 2.0 | 0.00 | 0.00 | 0.00 | 31 | 1014.2 |
| 20260507143141 | 68 | 90 | 0.0 | 0.0 | 0.00 | 0.00 | 0.00 | 33 | 1014.3 |
| 20260507142636 | 67 | 96 | 0.0 | 0.0 | 0.00 | 0.00 | 0.00 | 34 | 1014.3 |
| 20260507142133 | 66 | 98 | 0.0 | 0.0 | 0.00 | 0.00 | 0.00 | 35 | 1014.2 |
| 20260507141629 | 65 | 107 | 0.0 | 0.0 | 0.00 | 0.00 | 0.00 | 35 | 1014.4 |
| 20260507141126 | 65 | 99 | 0.0 | 0.0 | 0.00 | 0.00 | 0.00 | 36 | 1014.5 |
| 20260507140623 | 64 | 101 | 1.0 | 1.0 | 0.00 | 0.00 | 0.00 | 37 | 1014.2 |
| 20260507140120 | 63 | 91 | 0.0 | 0.0 | 0.00 | 0.00 | 0.00 | 41 | 1014.3 |
| 20260507135617 | 62 | 91 | 0.0 | 0.0 | 0.00 | 0.00 | 0.00 | 42 | 1014.2 |
| 20260507135115 | 61 | 91 | 0.0 | 0.0 | 0.00 | 0.00 | 0.00 | 44 | 1014.6 |
| 20260507134611 | 60 | 90 | 0.0 | 0.0 | 0.00 | 0.00 | 0.00 | 46 | 1014.3 |
| 20260507134107 | 60 | 75 | 0.0 | 0.0 | 0.00 | 0.00 | 0.00 | 48 | 1014.3 |
| 20260507133603 | 59 | 70 | 1.0 | 1.0 | 0.00 | 0.00 | 0.00 | 50 | 1014.1 |
| 20260507133101 | 59 | 72 | 0.0 | 0.0 | 0.00 | 0.00 | 0.00 | 52 | 1014.3 |
| 20260507132557 | 58 | 72 | 0.0 | 0.0 | 0.00 | 0.00 | 0.00 | 50 | 1014.2 |
| 20260507132054 | 58 | 76 | 1.0 | 1.0 | 0.00 | 0.00 | 0.00 | 50 | 1014.1 |
| 20260507131551 | 57 | 129 | 0.0 | 0.0 | 0.00 | 0.00 | 0.00 | 49 | 1014.1 |
| 20260507131048 | 56 | 130 | 0.0 | 0.0 | 0.00 | 0.00 | 0.00 | 50 | 1014.0 |
| 20260507130545 | 54 | 136 | 0.0 | 0.0 | 0.00 | 0.00 | 0.00 | 51 | 1013.9 |
| 20260507130043 | 53 | 155 | 0.0 | 0.0 | 0.00 | 0.00 | 0.00 | 55 | 1013.9 |
| 20260507125541 | 52 | 158 | 0.0 | 0.0 | 0.00 | 0.00 | 0.00 | 58 | 1013.9 |
| 20260507125038 | 53 | 91 | 0.0 | 0.0 | 0.00 | 0.00 | 0.00 | 58 | 1013.8 |
| 20260507124534 | 52 | 91 | 0.0 | 0.0 | 0.00 | 0.00 | 0.00 | 56 | 1014.0 |
| 20260507124032 | 53 | 91 | 0.0 | 0.0 | 0.00 | 0.00 | 0.00 | 57 | 1013.8 |
| 20260507123530 | 53 | 92 | 0.0 | 0.0 | 0.00 | 0.00 | 0.00 | 57 | 1014.0 |
| 20260507123027 | 53 | 92 | 0.0 | 0.0 | 0.00 | 0.00 | 0.00 | 55 | 1013.8 |
| 20260507122522 | 53 | 92 | 0.0 | 0.0 | 0.00 | 0.00 | 0.00 | 55 | 1013.5 |
| 20260507122018 | 52 | 92 | 0.0 | 0.0 | 0.00 | 0.00 | 0.00 | 57 | 1013.9 |
| 20260507121514 | 51 | 92 | 0.0 | 0.0 | 0.00 | 0.00 | 0.00 | 60 | 1013.6 |
| 20260507121010 | 51 | 91 | 0.0 | 0.0 | 0.00 | 0.00 | 0.00 | 58 | 1014.0 |
| 20260507120506 | 51 | 91 | 0.0 | 0.0 | 0.00 | 0.00 | 0.00 | 58 | 1013.8 |
| 20260507120004 | 51 | 91 | 0.0 | 0.0 | 0.00 | 0.00 | 0.00 | 58 | 1013.6 |
| 20260507115459 | 51 | 91 | 0.0 | 0.0 | 0.00 | 0.00 | 0.00 | 57 | 1013.9 |
| 20260507114955 | 52 | 91 | 0.0 | 0.0 | 0.00 | 0.00 | 0.00 | 55 | 1013.9 |
| 20260507114452 | 53 | 91 | 0.0 | 0.0 | 0.00 | 0.00 | 0.00 | 56 | 1013.9 |
| 20260507113949 | 53 | 91 | 0.0 | 0.0 | 0.00 | 0.00 | 0.00 | 53 | 1013.8 |
| 20260507113446 | 53 | 91 | 0.0 | 0.0 | 0.00 | 0.00 | 0.00 | 53 | 1013.8 |
| 20260507112943 | 54 | 94 | 0.0 | 0.0 | 0.00 | 0.00 | 0.00 | 55 | 1013.8 |
| 20260507112441 | 54 | 94 | 0.0 | 0.0 | 0.00 | 0.00 | 0.00 | 53 | 1013.9 |
| 20260507111937 | 55 | 96 | 0.0 | 0.0 | 0.00 | 0.00 | 0.00 | 51 | 1013.9 |
| 20260507111435 | 55 | 96 | 0.0 | 0.0 | 0.00 | 0.00 | 0.00 | 50 | 1013.9 |
| 20260507110931 | 56 | 104 | 1.0 | 1.0 | 0.00 | 0.00 | 0.00 | 48 | 1014.0 |
| 20260507110427 | 56 | 105 | 0.0 | 0.0 | 0.00 | 0.00 | 0.00 | 46 | 1013.8 |
| 20260507105924 | 57 | 106 | 0.0 | 0.0 | 0.00 | 0.00 | 0.00 | 45 | 1013.9 |
| 20260507105421 | 57 | 106 | 0.0 | 0.0 | 0.00 | 0.00 | 0.00 | 43 | 1013.9 |
| 20260507104918 | 58 | 108 | 0.0 | 0.0 | 0.00 | 0.00 | 0.00 | 42 | 1013.6 |
| 20260507104415 | 58 | 108 | 0.0 | 0.0 | 0.00 | 0.00 | 0.00 | 41 | 1013.6 |
| 20260507103910 | 58 | 106 | 1.0 | 1.0 | 0.00 | 0.00 | 0.00 | 41 | 1013.5 |
| 20260507103407 | 58 | 129 | 1.0 | 1.0 | 0.00 | 0.00 | 0.00 | 41 | 1013.6 |
| 20260507102903 | 56 | 122 | 1.0 | 1.0 | 0.00 | 0.00 | 0.00 | 45 | 1013.6 |
| 20260507102400 | 55 | 98 | 0.0 | 0.0 | 0.00 | 0.00 | 0.00 | 50 | 1013.5 |
| 20260507101856 | 54 | 93 | 0.0 | 0.0 | 0.00 | 0.00 | 0.00 | 55 | 1013.8 |
| 20260507101356 | 54 | 93 | 0.0 | 0.0 | 0.00 | 0.00 | 0.00 | 55 | 1013.4 |
| 20260507100854 | 55 | 93 | 0.0 | 0.0 | 0.00 | 0.00 | 0.00 | 55 | 1014.0 |
| 20260507100351 | 55 | 93 | 0.0 | 0.0 | 0.00 | 0.00 | 0.00 | 54 | 1013.8 |
| 20260507095849 | 55 | 93 | 0.0 | 0.0 | 0.00 | 0.00 | 0.00 | 53 | 1013.6 |
| 20260507095345 | 55 | 93 | 0.0 | 0.0 | 0.00 | 0.00 | 0.00 | 53 | 1014.0 |
| 20260507094843 | 56 | 93 | 0.0 | 0.0 | 0.00 | 0.00 | 0.00 | 52 | 1014.0 |
| 20260507094339 | 56 | 93 | 1.0 | 0.0 | 0.00 | 0.00 | 0.00 | 51 | 1013.8 |
| 20260507093837 | 56 | 84 | 0.0 | 0.0 | 0.00 | 0.00 | 0.00 | 52 | 1013.8 |
| 20260507093335 | 56 | 84 | 0.0 | 0.0 | 0.00 | 0.00 | 0.00 | 51 | 1013.8 |
| 20260507092833 | 56 | 84 | 0.0 | 0.0 | 0.00 | 0.00 | 0.00 | 51 | 1013.9 |
| 20260507092329 | 57 | 84 | 0.0 | 0.0 | 0.00 | 0.00 | 0.00 | 51 | 1014.0 |
| 20260507091825 | 57 | 84 | 0.0 | 0.0 | 0.00 | 0.00 | 0.00 | 49 | 1014.0 |
| 20260507091322 | 57 | 84 | 0.0 | 0.0 | 0.00 | 0.00 | 0.00 | 50 | 1014.0 |
| 20260507090817 | 57 | 84 | 0.0 | 0.0 | 0.00 | 0.00 | 0.00 | 51 | 1014.1 |
| 20260507090314 | 57 | 84 | 0.0 | 0.0 | 0.00 | 0.00 | 0.00 | 48 | 1014.0 |
| 20260507085811 | 57 | 84 | 0.0 | 0.0 | 0.00 | 0.00 | 0.00 | 47 | 1014.1 |
| 20260507085308 | 58 | 84 | 0.0 | 0.0 | 0.00 | 0.00 | 0.00 | 46 | 1014.3 |
| 20260507084805 | 57 | 85 | 0.0 | 0.0 | 0.00 | 0.00 | 0.00 | 46 | 1014.2 |
| 20260507084301 | 57 | 86 | 0.0 | 0.0 | 0.00 | 0.00 | 0.00 | 49 | 1014.1 |
| 20260507083759 | 57 | 87 | 0.0 | 0.0 | 0.00 | 0.00 | 0.00 | 51 | 1013.9 |
| 20260507083255 | 57 | 87 | 0.0 | 0.0 | 0.00 | 0.00 | 0.00 | 51 | 1014.3 |
| 20260507082751 | 57 | 87 | 0.0 | 0.0 | 0.00 | 0.00 | 0.00 | 51 | 1014.0 |
| 20260507082247 | 57 | 87 | 0.0 | 0.0 | 0.00 | 0.00 | 0.00 | 51 | 1014.0 |
| 20260507081744 | 57 | 87 | 0.0 | 0.0 | 0.00 | 0.00 | 0.00 | 52 | 1014.1 |
| 20260507081240 | 57 | 87 | 0.0 | 0.0 | 0.00 | 0.00 | 0.00 | 51 | 1014.1 |
| 20260507080737 | 58 | 87 | 0.0 | 0.0 | 0.00 | 0.00 | 0.00 | 50 | 1014.1 |
| 20260507080233 | 58 | 87 | 0.0 | 0.0 | 0.00 | 0.00 | 0.00 | 51 | 1014.2 |
| 20260507075729 | 58 | 87 | 0.0 | 0.0 | 0.00 | 0.00 | 0.00 | 49 | 1014.2 |
| 20260507075225 | 58 | 87 | 0.0 | 0.0 | 0.00 | 0.00 | 0.00 | 50 | 1014.0 |
| 20260507074721 | 59 | 87 | 0.0 | 0.0 | 0.00 | 0.00 | 0.00 | 50 | 1014.0 |
| 20260507074220 | 59 | 87 | 0.0 | 0.0 | 0.00 | 0.00 | 0.00 | 49 | 1014.1 |
| 20260507073716 | 59 | 87 | 0.0 | 0.0 | 0.00 | 0.00 | 0.00 | 49 | 1014.0 |
| 20260507073213 | 59 | 87 | 0.0 | 0.0 | 0.00 | 0.00 | 0.00 | 49 | 1013.9 |
| 20260507072711 | 59 | 87 | 0.0 | 0.0 | 0.00 | 0.00 | 0.00 | 50 | 1014.0 |
| 20260507072208 | 59 | 87 | 0.0 | 0.0 | 0.00 | 0.00 | 0.00 | 49 | 1014.0 |
| 20260507071705 | 59 | 87 | 0.0 | 0.0 | 0.00 | 0.00 | 0.00 | 49 | 1014.1 |
| 20260507071201 | 60 | 87 | 0.0 | 0.0 | 0.00 | 0.00 | 0.00 | 47 | 1014.0 |
| 20260507070659 | 60 | 87 | 0.0 | 0.0 | 0.00 | 0.00 | 0.00 | 47 | 1014.1 |
| 20260507070155 | 60 | 87 | 0.0 | 0.0 | 0.00 | 0.00 | 0.00 | 47 | 1014.1 |
| 20260507065651 | 60 | 87 | 0.0 | 0.0 | 0.00 | 0.00 | 0.00 | 46 | 1014.2 |
| 20260507065149 | 60 | 87 | 0.0 | 0.0 | 0.00 | 0.00 | 0.00 | 45 | 1014.2 |
| 20260507064646 | 60 | 86 | 0.0 | 0.0 | 0.00 | 0.00 | 0.00 | 45 | 1014.2 |
| 20260507064144 | 60 | 86 | 1.0 | 1.0 | 0.00 | 0.00 | 0.00 | 46 | 1014.1 |
| 20260507063642 | 60 | 56 | 0.0 | 0.0 | 0.00 | 0.00 | 0.00 | 45 | 1014.0 |
| 20260507063138 | 60 | 345 | 0.0 | 0.0 | 0.00 | 0.00 | 0.00 | 45 | 1013.6 |
| 20260507062635 | 60 | 345 | 0.0 | 0.0 | 0.00 | 0.00 | 0.00 | 45 | 1014.1 |
| 20260507062133 | 61 | 345 | 0.0 | 0.0 | 0.00 | 0.00 | 0.00 | 44 | 1014.1 |
| 20260507061631 | 61 | 345 | 0.0 | 0.0 | 0.00 | 0.00 | 0.00 | 42 | 1014.0 |
| 20260507061128 | 62 | 345 | 0.0 | 0.0 | 0.00 | 0.00 | 0.00 | 42 | 1013.9 |